Track STARLINK-2350 now! 10-day predictions STARLINK-2350 is classified as:
1 47890U 21021AG 22180.41315043 -.00004511 00000-0 -94251-4 0 9996 2 47890 53.0523 157.6433 0002753 27.6157 332.4993 15.42147053 72602